Weather History for Kalispell, MT

Change the Weather History Date:

Thursday, April 10, 2014

  Actual Average Record
Temperature  
Mean Temperature 44 °F 42 °F  
Max Temperature 61 °F 54 °F 73 °F (1968)
Min Temperature 27 °F 30 °F 18 °F (2010)
Degree Days  
Heating Degree Days 21 23  
Month to date heating degree days 209 236  
Since 1 July heating degree days 7098 7007  
Cooling Degree Days 0 0  
Month to date cooling degree days 0 0  
Year to date cooling degree days 0 0  
Moisture  
Dew Point 23 °F    
Average Humidity 56    
Maximum Humidity 92    
Minimum Humidity 20    
Precipitation  
Precipitation 0.00 in 0.04 in 0.36 in (1979)
Month to date precipitation 0.09 0.39  
Year to date precipitation 4.97 3.78  
Snow  
Snow 0.00 in - - ()
Month to date snowfall 0.0  
Year to date snowfall 38.2  
Since 1 July snowfall 71.7  
Snow Depth 0.00 in    
Sea Level Pressure  
Sea Level Pressure 30.03 in    
Wind  
Wind Speed 7 mph (SW)    
Max Wind Speed 18 mph    
Max Gust Speed 27 mph    
Visibility 10 miles    
Events      
T = Trace of Precipitation, MM = Missing Value Source: NWS Daily Summary

Daily Weather History Graph

Daily Weather History Graph

Search for Another Location

Airport:

Trip Planner

Search our weather history database for the weather conditions in past years. The results will help you decide how hot, cold, wet, or windy it might be!

Date:

Astronomy

Apr. 10, 2014 Rise Set
Actual Time 6:56 AM MDT 8:20 PM MDT
Civil Twilight 6:24 AM MDT 8:53 PM MDT
Nautical Twilight 5:45 AM MDT 9:32 PM MDT
Astronomical Twilight 5:03 AM MDT 10:15 PM MDT
Moon 3:49 PM MDT (4/10) 4:42 AM MDT (4/10)
Length of Visible Light 14h 28m
Length of Day
13h 24m
Waxing Gibbous, 80% of the Moon is Illuminated
Apr 10
Waxing Gibbous
Apr 15
Full
Apr 22
Last Quarter
Apr 29
New
May 6
First Quarter

Hourly Weather History & Observations

Time (MDT) Temp. Windchill Dew Point Humidity Pressure Visibility Wind Dir Wind Speed Gust Speed Precip Events Conditions
12:55 AM 39.9 °F 33.9 °F 26.1 °F 58% 30.03 in 10.0 mi SW 9.2 mph - N/A   Clear
1:55 AM 39.0 °F 36.8 °F 24.1 °F 55% 30.04 in 10.0 mi SSW 3.5 mph - N/A   Clear
2:55 AM 37.0 °F 34.5 °F 25.0 °F 62% 30.03 in 10.0 mi SW 3.5 mph - N/A   Clear
3:55 AM 34.0 °F - 26.1 °F 73% 30.04 in 10.0 mi Calm Calm - N/A   Clear
4:55 AM 30.9 °F - 26.1 °F 82% 30.04 in 10.0 mi Calm Calm - N/A   Clear
5:55 AM 30.0 °F - 26.1 °F 85% 30.05 in 10.0 mi Calm Calm - N/A   Clear
6:55 AM 27.0 °F - 24.1 °F 89% 30.06 in 10.0 mi Calm Calm - N/A   Clear
7:55 AM 30.0 °F 25.2 °F 25.0 °F 82% 30.07 in 10.0 mi NE 4.6 mph - N/A   Clear
8:55 AM 41.0 °F - 28.0 °F 60% 30.07 in 10.0 mi Calm Calm - N/A   Clear
9:55 AM 46.9 °F - 25.0 °F 42% 30.07 in 10.0 mi South 9.2 mph - N/A   Clear
10:55 AM 53.1 °F - 18.0 °F 25% 30.04 in 10.0 mi SSW 10.4 mph - N/A   Clear
11:55 AM 54.0 °F - 15.1 °F 22% 30.05 in 10.0 mi WSW 10.4 mph - N/A   Clear
12:55 PM 55.4 °F - 15.8 °F 21% 30.02 in 10.0 mi SSW 9.2 mph 20.7 mph N/A   Clear
1:55 PM 57.9 °F - 17.1 °F 20% 30.02 in 10.0 mi WSW 15.0 mph - N/A   Clear
2:55 PM 59.0 °F - 19.0 °F 21% 30.02 in 10.0 mi WSW 13.8 mph - N/A   Clear
3:55 PM 60.1 °F - 19.0 °F 20% 30.01 in 10.0 mi WSW 12.7 mph 18.4 mph N/A   Clear
4:55 PM 60.1 °F - 19.0 °F 20% 30.00 in 10.0 mi SW 15.0 mph 18.4 mph N/A   Clear
5:55 PM 60.1 °F - 19.9 °F 21% 30.00 in 10.0 mi SSW 15.0 mph 23.0 mph N/A   Clear
6:55 PM 59.0 °F - 21.9 °F 24% 30.01 in 10.0 mi SW 12.7 mph - N/A   Clear
7:55 PM 54.0 °F - 24.1 °F 31% 30.02 in 10.0 mi WSW 10.4 mph - N/A   Clear
8:55 PM 46.0 °F 42.5 °F 25.0 °F 44% 30.03 in 10.0 mi SSW 6.9 mph - N/A   Clear
9:55 PM 45.0 °F 42.6 °F 24.1 °F 44% 30.04 in 10.0 mi SSW 4.6 mph - N/A   Clear
10:55 PM 39.9 °F 37.8 °F 25.0 °F 55% 30.03 in 10.0 mi NE 3.5 mph - N/A   Clear
11:55 PM 37.0 °F - 24.1 °F 59% 30.02 in 10.0 mi Calm Calm - N/A   Clear